QPF
0.00 0.00 0.01 0.01 0.01 0.01 0.01 0.00 0.00 0.00 0.01 0.00 0.00 0.00 0.00 0.00 0.00 0.01 0.02 0.05 0.08 0.08 0.04 0.02 0.01 0.02 0.10 0.08 0.07 0.05 0.09 0.07 0.10 0.12 0.16 0.12 0.16 0.15 0.15 0.20 0.08 0.00 0.00
0.01 0.01 0.02 0.01 0.01 0.00 0.00 0.00 0.00 0.00 0.00 0.00 0.00 0.00 0.00 0.00 0.01 0.04 0.07 0.08 0.09 0.10 0.05 0.00 0.00 0.03 0.10 0.14 0.07 0.07 0.07 0.07 0.15 0.11 0.14 0.12 0.14 0.15 0.07 0.04 0.02 0.00 0.00
0.02 0.03 0.02 0.01 0.01 0.00 0.00 0.00 0.00 0.00 0.00 0.00 0.00 0.00 0.00 0.00 0.01 0.03 0.04 0.06 0.14 0.16 0.03 0.00 0.01 0.03 0.09 0.14 0.10 0.07 0.07 0.14 0.17 0.12 0.03 0.01 0.01 0.02 0.01 0.00 0.01 0.00 0.00
0.01 0.01 0.01 0.00 0.00 0.00 0.00 0.00 0.00 0.00 0.00 0.00 0.00 0.00 0.00 0.00 0.00 0.01 0.08 0.08 0.09 0.02 0.01 0.00 0.03 0.06 0.11 0.11 0.12 0.10 0.10 0.18 0.14 0.06 0.00 0.00 0.00 0.00 0.00 0.00 0.00 0.00 0.00
0.00 0.00 0.00 0.00 0.00 0.00 0.00 0.00 0.00 0.00 0.00 0.00 0.00 0.00 0.00 0.00 0.00 0.02 0.03 0.01 0.01 0.00 0.00 0.00 0.04 0.13 0.18 0.19 0.14 0.09 0.12 0.15 0.06 0.00 0.00 0.00 0.00 0.00 0.00 0.00 0.00 0.00 0.00
0.00 0.00 0.00 0.00 0.00 0.00 0.00 0.00 0.00 0.00 0.00 0.00 0.00 0.00 0.00 0.00 0.00 0.00 0.00 0.00 0.00 0.00 0.00 0.01 0.07 0.05 0.02 0.07 0.17 0.25 0.18 0.08 0.01 0.00 0.00 0.00 0.00 0.00 0.00 0.00 0.00 0.00 0.00
0.00 0.00 0.00 0.00 0.00 0.00 0.00 0.00 0.00 0.00 0.00 0.00 0.00 0.02 0.03 0.00 0.00 0.00 0.00 0.00 0.00 0.00 0.00 0.06 0.09 0.06 0.03 0.00 0.04 0.10 0.07 0.04 0.00 0.00 0.00 0.00 0.00 0.00 0.00 0.00 0.00 0.00 0.00
0.00 0.00 0.00 0.00 0.00 0.00 0.00 0.00 0.00 0.00 0.02 0.04 0.04 0.07 0.03 0.00 0.00 0.00 0.00 0.01 0.00 0.00 0.00 0.04 0.04 0.01 0.01 0.00 0.00 0.01 0.01 0.00 0.00 0.00 0.00 0.00 0.00 0.00 0.00 0.00 0.00 0.00 0.00
0.00 0.00 0.00 0.00 0.00 0.00 0.00 0.00 0.00 0.01 0.04 0.07 0.06 0.08 0.02 0.00 0.00 0.00 0.02 0.03 0.00 0.00 0.00 0.00 0.02 0.00 0.00 0.00 0.01 0.00 0.00 0.00 0.00 0.00 0.00 0.00 0.00 0.00 0.00 0.00 0.00 0.00 0.00
0.00 0.00 0.00 0.00 0.00 0.00 0.00 0.00 0.01 0.02 0.03 0.04 0.06 0.04 0.00 0.00 0.00 0.00 0.00 0.00 0.00 0.00 0.00 0.00 0.00 0.00 0.00 0.00 0.02 0.00 0.00 0.00 0.00 0.00 0.00 0.00 0.00 0.00 0.00 0.00 0.00 0.00 0.00
0.00 0.00 0.00 0.00 0.00 0.00 0.00 0.00 0.00 0.01 0.01 0.04 0.06 0.01 0.00 0.00 0.00 0.00 0.00 0.00 0.00 0.00 0.00 0.00 0.00 0.00 0.00 0.00 0.00 0.00 0.00 0.00 0.00 0.00 0.00 0.00 0.00 0.00 0.00 0.00 0.00 0.00 0.00
0.00 0.00 0.00 0.00 0.00 0.00 0.00 0.00 0.01 0.04 0.05 0.07 0.02 0.00 0.00 0.00 0.00 0.00 0.00 0.00 0.00 0.00 0.00 0.00 0.00 0.00 0.00 0.00 0.00 0.00 0.00 0.00 0.00 0.00 0.00 0.00 0.00 0.00 0.00 0.00 0.00 0.00 0.00
0.00 0.00 0.00 0.00 0.00 0.00 0.00 0.03 0.06 0.11 0.08 0.04 0.04 0.02 0.00 0.00 0.00 0.00 0.00 0.00 0.00 0.00 0.00 0.00 0.00 0.00 0.00 0.00 0.00 0.00 0.00 0.00 0.00 0.00 0.00 0.00 0.00 0.00 0.00 0.00 0.00 0.00 0.00
0.00 0.00 0.00 0.00 0.00 0.02 0.05 0.10 0.22 0.25 0.20 0.12 0.08 0.01 0.00 0.00 0.00 0.00 0.00 0.00 0.00 0.00 0.00 0.00 0.00 0.00 0.00 0.00 0.00 0.00 0.00 0.00 0.00 0.00 0.00 0.00 0.00 0.00 0.00 0.00 0.00 0.01 0.02
0.00 0.00 0.00 0.00 0.00 0.07 0.14 0.20 0.22 0.18 0.13 0.13 0.08 0.01 0.00 0.00 0.00 0.00 0.00 0.00 0.00 0.00 0.00 0.00 0.00 0.00 0.00 0.00 0.01 0.00 0.00 0.00 0.00 0.00 0.00 0.00 0.00 0.00 0.00 0.01 0.03 0.01 0.00
0.00 0.00 0.00 0.00 0.00 0.01 0.00 0.02 0.04 0.01 0.00 0.02 0.01 0.01 0.00 0.00 0.00 0.00 0.00 0.00 0.00 0.00 0.00 0.00 0.00 0.00 0.00 0.00 0.01 0.00 0.00 0.00 0.00 0.00 0.01 0.01 0.00 0.01 0.01 0.01 0.01 0.00 0.00
0.00 0.00 0.00 0.00 0.00 0.00 0.00 0.00 0.00 0.00 0.00 0.00 0.00 0.00 0.00 0.00 0.00 0.00 0.00 0.00 0.00 0.00 0.01 0.00 0.00 0.00 0.00 0.00 0.00 0.00 0.00 0.01 0.02 0.01 0.00 0.01 0.01 0.01 0.00 0.00 0.00 0.00 0.00
0.00 0.00 0.00 0.00 0.00 0.00 0.00 0.00 0.00 0.00 0.00 0.00 0.00 0.00 0.00 0.00 0.00 0.00 0.00 0.00 0.00 0.00 0.00 0.00 0.00 0.00 0.00 0.00 0.01 0.01 0.01 0.01 0.01 0.01 0.01 0.00 0.00 0.00 0.00 0.00 0.00 0.00 0.00
0.00 0.00 0.00 0.00 0.00 0.00 0.00 0.00 0.02 0.04 0.00 0.00 0.00 0.00 0.00 0.00 0.00 0.00 0.00 0.00 0.00 0.01 0.00 0.00 0.00 0.00 0.00 0.02 0.02 0.01 0.01 0.00 0.01 0.01 0.00 0.00 0.00 0.00 0.00 0.00 0.00 0.00 0.00
0.00 0.01 0.01 0.00 0.00 0.00 0.00 0.01 0.09 0.04 0.00 0.00 0.00 0.00 0.00 0.00 0.00 0.00 0.00 0.00 0.01 0.01 0.00 0.00 0.00 0.00 0.00 0.01 0.01 0.01 0.00 0.00 0.00 0.00 0.00 0.00 0.00 0.00 0.00 0.00 0.00 0.00 0.00
0.00 0.00 0.01 0.00 0.01 0.00 0.00 0.00 0.00 0.00 0.00 0.00 0.00 0.00 0.00 0.00 0.00 0.00 0.00 0.00 0.00 0.00 0.00 0.00 0.00 0.00 0.00 0.00 0.00 0.00 0.00 0.00 0.00 0.00 0.00 0.00 0.00 0.00 0.00 0.00 0.00 0.00 0.00
0.00 0.00 0.00 0.01 0.00 0.00 0.00 0.00 0.00 0.00 0.00 0.00 0.00 0.00 0.00 0.00 0.00 0.00 0.00 0.00 0.00 0.00 0.00 0.00 0.00 0.00 0.00 0.00 0.00 0.00 0.00 0.00 0.00 0.00 0.00 0.00 0.00 0.00 0.00 0.00 0.00 0.00 0.00
0.00 0.00 0.00 0.03 0.00 0.00 0.00 0.00 0.00 0.00 0.00 0.00 0.00 0.00 0.00 0.00 0.01 0.01 0.01 0.01 0.01 0.02 0.00 0.00 0.00 0.00 0.00 0.00 0.00 0.00 0.00 0.00 0.00 0.00 0.00 0.00 0.00 0.00 0.00 0.00 0.00 0.00 0.00
0.01 0.00 0.00 0.01 0.00 0.00 0.00 0.01 0.00 0.00 0.01 0.00 0.00 0.00 0.00 0.03 0.04 0.03 0.06 0.04 0.02 0.01 0.00 0.00 0.00 0.00 0.00 0.00 0.00 0.00 0.00 0.00 0.00 0.00 0.00 0.00 0.00 0.00 0.00 0.00 0.00 0.00 0.00
0.02 0.00 0.00 0.00 0.00 0.00 0.00 0.03 0.01 0.00 0.00 0.00 0.00 0.00 0.00 0.00 0.01 0.01 0.03 0.02 0.03 0.00 0.00 0.00 0.00 0.00 0.00 0.00 0.00 0.00 0.00 0.00 0.00 0.00 0.00 0.00 0.00 0.00 0.00 0.00 0.00 0.00 0.00
0.01 0.01 0.03 0.02 0.01 0.00 0.00 0.00 0.01 0.01 0.01 0.00 0.00 0.00 0.00 0.00 0.00 0.00 0.00 0.00 0.00 0.00 0.00 0.00 0.00 0.00 0.00 0.00 0.00 0.00 0.00 0.00 0.00 0.00 0.00 0.00 0.00 0.00 0.00 0.00 0.00 0.00 0.00
MSLP
995.31 996.07 996.70 997.33 997.75 998.39 999.20 999.84 1000.49 1001.17 1001.87 1002.44 1002.93 1003.32 1003.76 1004.29 1004.76 1005.27 1005.56 1005.99 1006.53 1006.91 1007.32 1007.70 1008.15 1008.24 1008.37 1008.37 1008.59 1008.79 1009.14 1009.45 1009.82 1010.34 1010.42 1010.89 1011.27 1011.47 1011.86 1012.37 1012.90 1013.71 1014.47
995.42 996.22 996.97 997.54 998.16 998.79 999.45 1000.17 1000.65 1001.36 1001.85 1002.32 1002.78 1003.30 1003.73 1004.09 1004.54 1005.11 1005.63 1005.72 1006.25 1006.66 1007.15 1007.76 1008.04 1008.13 1008.10 1008.19 1008.42 1008.71 1008.91 1009.33 1009.62 1010.39 1011.06 1011.56 1011.83 1012.05 1012.56 1013.00 1013.53 1014.20 1014.72
996.15 996.76 997.39 998.04 998.62 999.15 999.75 1000.33 1000.86 1001.51 1001.89 1002.16 1002.62 1003.16 1003.56 1004.13 1004.68 1005.03 1005.21 1005.52 1005.91 1006.33 1007.02 1007.52 1007.81 1008.01 1008.09 1008.07 1008.38 1008.57 1008.84 1009.27 1009.69 1010.41 1011.56 1012.26 1012.60 1012.94 1013.43 1013.81 1014.30 1014.79 1015.36
996.54 997.20 997.84 998.41 999.07 999.64 1000.14 1000.62 1001.11 1001.55 1002.00 1002.40 1002.82 1003.24 1003.68 1004.07 1004.36 1004.73 1005.21 1005.57 1006.02 1006.50 1007.01 1007.36 1007.60 1007.72 1007.70 1007.76 1008.15 1008.37 1008.75 1009.24 1009.87 1010.85 1011.80 1012.50 1012.98 1013.53 1013.91 1014.40 1015.15 1015.62 1016.14
996.78 997.34 998.09 998.74 999.36 999.90 1000.38 1000.86 1001.28 1001.78 1002.07 1002.50 1003.01 1003.46 1003.86 1004.40 1004.95 1005.15 1005.43 1005.92 1006.37 1006.85 1007.25 1007.49 1007.54 1007.69 1007.64 1007.57 1007.79 1008.21 1008.65 1009.30 1010.24 1011.08 1012.07 1012.71 1013.30 1013.76 1014.24 1014.91 1015.44 1016.10 1016.82
996.53 997.48 998.26 998.92 999.51 1000.04 1000.55 1001.08 1001.61 1001.98 1002.31 1002.79 1003.26 1003.78 1004.62 1005.26 1005.90 1005.77 1005.84 1006.37 1006.60 1006.90 1007.23 1007.45 1007.58 1007.84 1007.79 1007.72 1007.95 1008.09 1008.46 1009.29 1010.31 1011.14 1012.03 1012.59 1013.28 1013.84 1014.51 1014.97 1015.48 1016.22 1017.27
996.68 997.54 998.29 998.98 999.63 1000.19 1000.88 1001.44 1002.01 1002.30 1002.77 1003.24 1003.65 1004.11 1005.08 1005.87 1006.21 1006.17 1006.31 1006.39 1006.82 1007.04 1007.21 1007.28 1007.36 1007.74 1007.71 1007.98 1008.25 1008.53 1008.90 1009.39 1009.98 1010.80 1011.77 1012.49 1013.24 1013.78 1014.31 1015.13 1015.79 1016.22 1016.80
996.94 997.50 998.35 999.20 1000.02 1000.69 1001.20 1001.86 1002.20 1002.63 1003.15 1003.55 1003.99 1004.65 1005.44 1006.30 1006.63 1006.63 1006.57 1006.61 1007.08 1007.36 1007.33 1007.37 1007.45 1007.70 1007.84 1008.13 1008.42 1008.95 1009.48 1010.03 1010.59 1011.07 1011.76 1012.69 1013.32 1013.97 1014.33 1014.78 1015.41 1016.35 1017.16
996.64 997.43 998.75 999.52 1000.31 1000.94 1001.54 1002.05 1002.48 1002.91 1003.57 1003.99 1004.30 1004.90 1005.65 1006.50 1006.95 1006.79 1006.69 1006.86 1007.40 1007.77 1007.89 1007.85 1007.98 1008.27 1008.50 1008.64 1008.73 1009.44 1010.03 1010.78 1010.96 1011.35 1012.07 1013.01 1013.70 1014.08 1014.34 1014.98 1015.98 1016.41 1017.29
996.58 997.87 998.87 999.63 1000.39 1001.10 1001.81 1002.16 1002.71 1003.27 1003.59 1004.08 1004.57 1005.16 1005.94 1006.63 1007.06 1006.93 1006.90 1007.16 1007.73 1008.10 1008.36 1008.51 1008.53 1008.62 1009.01 1009.15 1009.27 1009.75 1010.48 1011.21 1011.78 1012.65 1013.28 1013.79 1014.02 1014.57 1014.74 1014.82 1015.45 1016.05 1016.90
997.16 997.92 998.67 999.67 1000.34 1001.15 1001.91 1002.33 1002.86 1003.26 1003.58 1004.27 1004.96 1005.47 1006.13 1006.67 1007.25 1007.28 1007.45 1007.62 1007.92 1008.29 1008.65 1008.91 1009.29 1009.30 1009.41 1009.46 1009.65 1010.01 1010.76 1011.51 1012.16 1012.80 1013.42 1013.98 1014.44 1014.82 1014.95 1015.11 1015.43 1015.88 1016.42
997.51 998.11 998.92 999.75 1000.29 1001.44 1001.99 1002.50 1003.08 1003.40 1003.93 1004.51 1005.24 1005.93 1006.51 1007.08 1007.44 1007.70 1007.75 1007.76 1008.10 1008.36 1008.84 1009.31 1009.92 1009.80 1009.90 1010.07 1010.37 1010.76 1011.21 1011.91 1012.52 1013.19 1013.69 1014.17 1014.61 1015.00 1015.29 1015.45 1015.63 1015.98 1016.05
997.80 998.57 999.18 999.87 1000.54 1001.42 1002.21 1002.81 1003.33 1003.68 1004.13 1004.63 1005.24 1005.92 1006.73 1007.32 1007.87 1008.16 1008.09 1008.08 1008.14 1008.43 1009.06 1009.74 1010.06 1010.24 1010.51 1010.83 1011.07 1011.37 1011.71 1012.28 1012.85 1013.43 1013.90 1014.34 1014.74 1015.07 1015.37 1015.74 1015.97 1016.13 1016.29
998.27 998.90 999.76 1000.33 1000.93 1001.68 1002.33 1003.11 1003.50 1003.80 1004.25 1004.54 1005.16 1005.90 1006.71 1007.41 1007.85 1008.31 1008.38 1008.68 1008.96 1009.53 1009.89 1010.19 1010.44 1010.71 1010.94 1011.30 1011.65 1011.78 1012.05 1012.51 1012.95 1013.42 1013.89 1014.37 1014.92 1015.24 1015.53 1015.81 1016.09 1016.27 1016.57
998.32 999.43 1000.09 1000.81 1001.47 1002.66 1003.79 1004.26 1004.37 1004.54 1004.73 1004.47 1005.03 1005.66 1006.53 1007.42 1007.86 1007.88 1008.12 1008.75 1009.25 1009.74 1010.05 1010.43 1010.79 1011.20 1011.49 1011.54 1011.60 1011.91 1012.19 1012.57 1013.03 1013.46 1013.84 1014.21 1014.66 1015.11 1015.33 1015.52 1015.74 1016.03 1016.24
998.53 999.48 1000.04 1000.64 1001.46 1002.36 1003.46 1004.80 1005.25 1005.29 1005.05 1004.54 1004.86 1005.29 1006.13 1007.16 1007.86 1008.14 1008.51 1009.08 1009.76 1010.05 1010.29 1010.63 1011.04 1011.28 1011.32 1011.40 1011.63 1011.98 1012.32 1012.64 1012.91 1013.33 1013.77 1014.07 1014.26 1014.77 1015.08 1015.29 1015.46 1015.55 1015.64
998.19 999.20 999.52 1000.26 1000.95 1001.61 1002.54 1003.67 1005.05 1005.96 1005.57 1005.74 1005.66 1005.93 1006.55 1007.74 1008.20 1008.65 1008.94 1009.51 1009.85 1010.16 1010.42 1010.86 1011.17 1011.26 1011.38 1011.38 1011.60 1011.88 1012.13 1012.42 1012.65 1012.96 1013.35 1013.69 1013.97 1014.34 1014.62 1014.80 1014.99 1015.15 1015.17
998.00 998.37 998.75 1000.04 1000.64 1001.34 1001.93 1002.68 1003.66 1004.64 1005.49 1006.54 1007.41 1007.45 1007.72 1008.17 1008.61 1008.99 1009.19 1009.75 1010.25 1010.07 1010.15 1010.51 1010.89 1011.01 1011.12 1011.15 1011.26 1011.58 1011.93 1012.21 1012.52 1012.70 1013.03 1013.23 1013.45 1013.71 1013.97 1014.12 1014.26 1014.37 1014.32
997.95 998.38 999.38 999.94 1000.55 1001.28 1001.85 1002.36 1002.85 1003.70 1004.90 1006.48 1007.72 1008.40 1008.87 1009.01 1009.14 1009.13 1009.17 1009.13 1009.31 1009.46 1009.68 1010.02 1010.40 1010.69 1010.78 1010.65 1010.78 1010.96 1011.40 1011.74 1012.08 1012.36 1012.50 1012.68 1012.76 1012.82 1012.94 1012.96 1013.05 1013.08 1013.17
998.44 998.76 999.57 999.94 1000.54 1001.22 1001.75 1002.49 1003.31 1003.63 1004.57 1005.75 1007.02 1008.36 1008.99 1009.20 1009.45 1009.62 1009.48 1008.91 1008.81 1008.86 1009.15 1009.48 1009.93 1010.12 1010.23 1010.25 1010.48 1010.84 1011.14 1011.47 1011.68 1011.84 1011.93 1011.97 1011.99 1012.07 1012.33 1012.24 1012.22 1012.31 1012.45
998.07 999.14 999.58 1000.17 1000.56 1001.04 1001.75 1002.17 1002.58 1003.00 1003.90 1004.74 1006.24 1007.89 1008.25 1008.81 1009.06 1009.08 1008.96 1008.71 1008.45 1008.49 1008.77 1009.03 1009.30 1009.60 1009.83 1010.00 1010.18 1010.53 1010.83 1011.09 1011.29 1011.46 1011.62 1011.64 1011.66 1011.64 1011.43 1011.20 1011.37 1011.45 1011.59
997.91 998.49 998.92 999.79 1000.20 1000.82 1001.26 1001.83 1002.50 1002.97 1003.68 1004.35 1005.80 1007.70 1008.13 1008.35 1008.52 1008.31 1008.21 1008.20 1008.08 1007.87 1008.11 1008.54 1008.79 1008.99 1009.20 1009.53 1009.83 1010.23 1010.61 1010.69 1010.83 1010.87 1010.97 1010.88 1010.94 1010.90 1010.65 1010.70 1010.90 1011.01 1011.09
999.00 998.33 999.13 999.74 1000.24 1000.61 1001.03 1001.35 1002.10 1002.73 1003.51 1004.34 1005.44 1007.01 1008.05 1007.96 1007.85 1007.86 1007.63 1007.42 1008.51 1008.76 1009.16 1008.88 1009.64 1010.31 1010.59 1010.78 1011.12 1011.48 1011.71 1011.76 1011.06 1009.99 1009.91 1009.88 1009.88 1009.86 1009.91 1009.99 1010.18 1010.39 1010.50
1000.18 999.55 999.70 1000.30 1000.36 1000.50 1001.86 1002.08 1002.23 1003.47 1004.11 1004.62 1005.75 1006.60 1007.44 1008.29 1008.56 1009.11 1009.31 1009.63 1010.09 1010.04 1010.31 1011.18 1011.90 1012.44 1012.56 1012.82 1013.34 1013.27 1013.14 1012.75 1011.71 1010.79 1010.10 1009.93 1009.57 1009.39 1009.39 1009.45 1009.59 1009.66 1009.77
1002.35 1002.41 1001.89 1003.05 1002.37 1002.26 1003.07 1004.54 1004.40 1005.17 1005.87 1006.37 1007.14 1007.59 1008.24 1008.54 1009.33 1009.52 1010.13 1010.75 1010.81 1011.52 1012.33 1012.79 1012.87 1013.41 1013.52 1013.59 1014.17 1013.52 1013.39 1012.88 1012.30 1011.71 1010.57 1010.30 1010.17 1010.00 1009.94 1009.79 1010.01 1010.05 1009.95
1004.57 1004.41 1004.29 1004.38 1004.62 1005.40 1005.78 1006.39 1006.60 1007.35 1008.11 1008.65 1009.28 1009.89 1010.13 1010.66 1011.14 1011.39 1011.49 1011.64 1012.32 1013.18 1013.69 1014.25 1014.76 1014.90 1015.10 1015.38 1015.25 1014.88 1014.25 1013.43 1012.63 1012.06 1011.44 1011.63 1011.85 1011.97 1011.75 1011.28 1011.14 1011.10 1011.12
Thickness
5757 5754 5752 5750 5749 5745 5738 5733 5728 5724 5718 5712 5708 5703 5699 5694 5688 5681 5677 5671 5664 5660 5656 5651 5645 5643 5640 5643 5642 5641 5639 5637 5633 5632 5636 5636 5636 5637 5638 5637 5634 5630 5631
5750 5746 5743 5742 5739 5734 5729 5724 5722 5716 5713 5708 5704 5697 5693 5690 5685 5677 5670 5668 5662 5656 5651 5645 5642 5639 5640 5641 5641 5640 5641 5640 5637 5632 5630 5629 5630 5630 5630 5629 5627 5626 5628
5738 5735 5735 5731 5728 5724 5720 5718 5715 5709 5706 5704 5699 5693 5689 5684 5678 5674 5670 5665 5661 5655 5648 5641 5639 5637 5637 5640 5640 5640 5640 5640 5638 5634 5627 5624 5623 5624 5624 5624 5624 5624 5623
5729 5728 5725 5723 5720 5717 5714 5710 5707 5704 5699 5695 5692 5688 5684 5680 5677 5673 5666 5660 5655 5649 5642 5636 5635 5636 5639 5640 5640 5640 5640 5638 5637 5630 5626 5623 5622 5621 5621 5620 5618 5618 5617
5722 5721 5717 5716 5714 5711 5707 5704 5701 5696 5694 5690 5685 5681 5678 5673 5668 5665 5660 5653 5648 5640 5635 5632 5633 5634 5636 5640 5641 5641 5639 5636 5632 5628 5622 5620 5619 5619 5618 5616 5616 5614 5611
5720 5713 5712 5709 5707 5705 5702 5698 5694 5689 5686 5682 5677 5674 5667 5662 5653 5653 5653 5647 5643 5638 5632 5630 5631 5630 5633 5636 5638 5640 5640 5636 5630 5626 5622 5621 5619 5618 5616 5616 5615 5613 5608
5713 5710 5708 5705 5702 5699 5695 5691 5685 5682 5680 5674 5671 5668 5660 5654 5648 5647 5646 5644 5638 5635 5631 5631 5632 5631 5634 5636 5634 5635 5635 5634 5634 5630 5624 5623 5620 5619 5617 5614 5613 5612 5610
5707 5707 5704 5699 5695 5691 5688 5683 5680 5678 5673 5669 5666 5662 5656 5649 5644 5641 5641 5641 5635 5631 5630 5631 5632 5632 5633 5635 5635 5634 5632 5631 5629 5628 5626 5621 5620 5618 5618 5618 5614 5611 5608
5706 5705 5696 5693 5688 5685 5681 5678 5676 5673 5667 5665 5664 5659 5653 5646 5639 5639 5640 5637 5630 5627 5626 5627 5628 5628 5628 5629 5633 5629 5627 5624 5625 5625 5623 5620 5618 5618 5617 5616 5611 5610 5604
5706 5698 5695 5691 5685 5681 5676 5674 5672 5668 5666 5664 5660 5656 5648 5643 5636 5638 5640 5634 5627 5624 5622 5622 5622 5627 5623 5626 5630 5628 5624 5622 5620 5616 5614 5614 5614 5614 5615 5617 5616 5613 5608
5700 5697 5694 5688 5684 5679 5673 5672 5669 5666 5665 5659 5655 5652 5646 5642 5637 5635 5633 5631 5626 5622 5620 5620 5620 5618 5621 5624 5628 5627 5624 5621 5617 5616 5614 5612 5610 5610 5614 5615 5614 5615 5612
5696 5694 5689 5684 5683 5675 5670 5667 5665 5664 5660 5656 5651 5646 5642 5639 5636 5631 5629 5630 5626 5624 5621 5619 5614 5616 5617 5620 5622 5619 5619 5618 5616 5614 5612 5611 5609 5608 5609 5612 5613 5614 5617
5691 5687 5684 5682 5678 5672 5665 5661 5660 5660 5657 5655 5650 5645 5640 5637 5633 5627 5627 5628 5628 5627 5623 5615 5613 5614 5615 5615 5615 5617 5618 5617 5615 5613 5612 5611 5610 5609 5609 5610 5612 5614 5615
5685 5682 5677 5674 5671 5667 5665 5662 5659 5658 5657 5655 5650 5645 5639 5636 5635 5631 5631 5629 5624 5620 5616 5615 5614 5615 5617 5616 5615 5617 5618 5617 5616 5615 5614 5613 5610 5609 5609 5610 5611 5612 5612
5683 5676 5673 5668 5664 5655 5648 5648 5651 5647 5651 5656 5651 5648 5641 5636 5636 5634 5636 5631 5626 5621 5620 5618 5616 5615 5615 5618 5619 5618 5618 5617 5615 5614 5614 5614 5612 5610 5611 5613 5614 5615 5615
5680 5675 5673 5669 5663 5658 5652 5644 5636 5638 5643 5648 5652 5653 5648 5637 5631 5630 5629 5626 5621 5619 5620 5618 5616 5616 5618 5620 5619 5618 5618 5617 5617 5616 5615 5615 5616 5614 5614 5615 5618 5620 5622
5683 5677 5677 5672 5666 5662 5657 5651 5644 5637 5638 5640 5643 5645 5643 5632 5629 5628 5627 5623 5620 5620 5620 5617 5616 5617 5618 5620 5619 5619 5619 5619 5619 5619 5617 5617 5620 5620 5618 5622 5623 5624 5626
5685 5683 5684 5673 5669 5663 5661 5658 5654 5649 5646 5642 5630 5633 5630 5628 5627 5626 5626 5625 5624 5625 5625 5622 5619 5620 5622 5624 5626 5624 5623 5622 5621 5622 5622 5624 5625 5626 5625 5628 5630 5631 5633
5687 5685 5677 5674 5670 5665 5661 5660 5660 5657 5651 5641 5632 5626 5622 5622 5623 5625 5627 5635 5634 5632 5631 5629 5627 5625 5626 5630 5632 5632 5630 5628 5627 5627 5628 5630 5632 5634 5636 5639 5641 5640 5641
5685 5678 5676 5675 5671 5666 5664 5659 5654 5657 5653 5647 5640 5631 5624 5627 5629 5629 5631 5637 5638 5640 5638 5637 5633 5634 5634 5637 5636 5635 5634 5633 5634 5635 5636 5638 5639 5640 5640 5643 5646 5646 5646
5690 5679 5679 5676 5672 5671 5665 5664 5664 5664 5659 5657 5649 5638 5631 5634 5632 5633 5635 5639 5643 5643 5642 5642 5642 5641 5641 5642 5641 5640 5639 5639 5639 5639 5639 5640 5642 5643 5647 5650 5651 5652 5651
5691 5688 5687 5679 5677 5674 5673 5670 5667 5666 5663 5661 5654 5641 5632 5642 5640 5641 5642 5643 5647 5650 5650 5648 5647 5648 5648 5647 5646 5645 5643 5644 5644 5645 5645 5647 5647 5648 5652 5652 5651 5651 5651
5682 5690 5684 5681 5680 5677 5676 5676 5672 5670 5665 5662 5657 5647 5642 5644 5645 5647 5647 5649 5641 5640 5641 5647 5643 5639 5638 5637 5636 5636 5636 5637 5643 5653 5653 5653 5653 5654 5655 5654 5654 5652 5651
5671 5679 5680 5675 5680 5682 5669 5673 5675 5665 5662 5664 5658 5654 5648 5640 5640 5635 5634 5633 5633 5635 5634 5628 5624 5620 5621 5620 5617 5618 5622 5626 5632 5640 5646 5648 5651 5653 5653 5654 5653 5653 5651
5649 5653 5666 5657 5664 5670 5662 5642 5656 5654 5650 5648 5645 5644 5638 5637 5632 5632 5629 5626 5627 5622 5616 5613 5613 5610 5611 5612 5609 5615 5618 5622 5626 5632 5637 5640 5643 5644 5645 5646 5645 5645 5645
5631 5636 5637 5641 5646 5642 5641 5637 5637 5634 5630 5627 5624 5621 5620 5617 5614 5615 5617 5618 5614 5608 5603 5599 5596 5597 5597 5596 5599 5603 5608 5615 5620 5623 5624 5624 5622 5621 5622 5626 5625 5625 5624